User: anonymous   Login
Location: ????????
(55.0097°N, 38.5678°E)
Time: 08:33:54
(UTC+00:00)
Language:

NOSS 7 (E) - Orbit

View from above orbital plane
View from above orbital plane
View from above satellite
View from above satellite

Ground track
Ground track

The orbit data is extracted from the following two-line orbital elements,

1 16624U 86014E   24166.71886489  .00010316  00000-0  86751-3 0  9999
2 16624  63.2999 303.5199 0869900 102.6307 267.3319 13.60283131248801
Epoch (UTC): 14 June 2024 17:15:09
Eccentricity: 0.0869900
inclination: 63.2999°
perigee height: 390 km
apogee height: 1679 km
right ascension of ascending node: 303.5199°
argument of perigee: 102.6307°
revolutions per day: 13.60283131
mean anomaly at epoch: 267.3319°
orbit number at epoch: 24880

The dashed part of the orbit path shows where the satellite is in the earth's shadow,  

DLR